EW8784 Weather Reports


time (UTC)temp
C
wind
direction
speed
KPH
gust
KPH
rain 1hr
cm
rain 24hr
cm
rain mn
cm
humidity
%
barometer
mb
20260901034503 31 37 6.4 9.7 0.00 0.33 0.23 52 1017.2
20260901031504 30 359 6.4 11.3 0.00 0.30 0.20 64 1017.6
20260901030007 30 52 1.6 6.4 0.00 0.30 0.20 72 1017.8
20260901024504 30 93 9.7 14.5 0.00 0.30 0.20 76 1018.0
20260901021504 29 163 8.0 12.9 0.00 0.20 0.10 93 1018.2
20260901014505 28 90 8.0 14.5 0.00 0.13 0.03 100 1018.7
20260901013006 28 73 8.0 16.1 0.00 0.13 0.03 100 1018.8
20260901011502 27 68 9.7 16.1 0.00 0.13 0.03 100 1018.9
20260901004505 27 114 6.4 9.7 0.00 0.13 0.03 100 1018.8
20260901003002 26 4 6.4 11.3 0.00 0.13 0.03 100 1018.9
20260901001503 26 141 6.4 9.7 0.00 0.13 0.03 100 1019.0
20260831234503 26 152 8.0 14.5 0.00 0.13 0.03 100 1019.1
20260831233006 26 120 3.2 9.7 0.00 0.13 0.03 100 1019.2
20260831231502 25 46 6.4 12.9 0.00 0.13 0.03 100 1019.2
20260831230005 25 44 4.8 14.5 0.00 0.10 0.00 100 1019.1
20260831223002 25 110 8.0 12.9 0.00 0.10 0.00 100 1019.0
20260831221505 25 89 8.0 14.5 0.00 0.10 0.00 100 1019.1
20260831220008 24 75 4.8 8.0 0.00 0.10 0.00 100 1019.1
20260831214504 24 77 4.8 8.0 0.00 0.10 0.00 100 1019.0
20260831213006 24 152 8.0 12.9 0.00 0.10 0.00 100 1019.0
20260831211506 24 86 6.4 11.3 0.00 0.10 0.00 100 1018.8
20260831210004 24 82 6.4 9.7 0.00 0.10 0.00 100 1018.7
20260831204505 24 77 4.8 6.4 0.00 0.10 0.00 100 1018.7
20260831203007 24 90 6.4 11.3 0.00 0.10 0.00 100 1018.7
20260831201502 23 56 9.7 12.9 0.00 0.10 0.00 100 1018.6
20260831200005 23 122 4.8 12.9 0.00 0.10 0.00 100 1018.5
20260831194502 24 96 6.4 9.7 0.00 0.10 0.00 100 1018.6
20260831193005 24 113 3.2 8.0 0.00 0.10 0.00 100 1018.6
20260831184505 24 58 1.6 1.6 0.00 0.10 0.00 100 1018.6
20260831181506 25 28 1.6 3.2 0.00 0.10 0.00 100 1018.8
20260831174502 25 55 3.2 8.0 0.00 0.10 0.00 100 1018.9
20260831173004 24 72 6.4 8.0 0.00 0.10 0.00 100 1018.9
20260831171506 24 39 1.6 1.6 0.00 0.10 0.00 100 1018.8
20260831170003 24 63 4.8 6.4 0.00 0.10 0.00 100 1018.8
20260831164506 25 76 0.0 0.0 0.00 0.10 0.00 100 1019.0
20260831163007 25 98 3.2 4.8 0.00 0.10 0.00 100 1018.8
20260831161502 24 359 0.0 4.8 0.00 0.10 0.00 100 1018.8
20260831160005 24 55 0.0 3.2 0.00 0.10 0.00 100 1018.9
20260831154503 25 66 6.4 8.0 0.00 0.10 0.00 100 1018.9
20260831153003 25 70 3.2 8.0 0.00 0.10 0.00 100 1018.9
20260831151505 24 76 4.8 6.4 0.00 0.10 0.00 100 1019.0
20260831150004 25 14 8.0 11.3 0.00 0.10 0.00 100 1018.9
20260831144506 24 113 6.4 11.3 0.00 0.10 0.10 100 1018.8
20260831143007 24 104 8.0 12.9 0.00 0.10 0.10 100 1018.8
20260831141505 25 38 4.8 9.7 0.00 0.10 0.10 100 1018.8
20260831140004 25 86 4.8 9.7 0.00 0.10 0.10 100 1018.8
20260831131504 25 80 11.3 17.7 0.00 0.10 0.10 100 1018.6
20260831130004 25 49 6.4 11.3 0.00 0.10 0.10 100 1018.6
20260831124506 25 69 4.8 8.0 0.00 0.10 0.10 100 1018.6
20260831121506 25 121 9.7 14.5 0.00 0.08 0.08 100 1018.4
20260831120004 25 105 6.4 11.3 0.00 0.08 0.08 100 1018.5
20260831114506 25 84 9.7 16.1 0.00 0.08 0.08 100 1018.5
20260831113002 25 77 8.0 12.9 0.00 0.08 0.08 100 1018.3
20260831110003 26 110 6.4 9.7 0.00 0.08 0.08 100 1017.9
20260831103005 26 59 6.4 12.9 0.00 0.08 0.08 100 1017.4
20260831101506 26 110 1.6 8.0 0.00 0.08 0.08 100 1017.2
20260831094507 26 96 6.4 12.9 0.00 0.08 0.08 100 1017.0
20260831093003 26 115 6.4 12.9 0.00 0.08 0.08 100 1016.9
20260831091506 26 79 8.0 16.1 0.00 0.08 0.08 100 1016.5
20260831090003 26 41 8.0 11.3 0.00 0.08 0.08 100 1016.5
20260831083009 26 118 9.7 16.1 0.00 0.08 0.08 100 1016.2
20260831081508 27 45 6.4 11.3 0.00 0.08 0.08 100 1016.1
20260831080005 27 63 4.8 8.0 0.00 0.08 0.08 100 1016.1
20260831073004 27 15 9.7 14.5 0.00 0.08 0.08 100 1015.8
20260831071504 27 23 6.4 12.9 0.00 0.08 0.08 99 1015.7
20260831070005 27 23 6.4 11.3 0.00 0.08 0.08 98 1015.6
20260831064506 28 125 6.4 12.9 0.00 0.08 0.08 98 1015.6
20260831063006 28 69 8.0 16.1 0.00 0.10 0.08 97 1015.5
20260831061503 28 75 4.8 14.5 0.00 0.13 0.08 96 1015.4
20260831060007 28 350 8.0 14.5 0.00 0.13 0.08 96 1015.4
20260831054508 28 86 6.4 16.1 0.00 0.13 0.08 95 1015.5
20260831053005 28 4 4.8 14.5 0.00 0.13 0.08 94 1015.5
20260831051506 29 90 8.0 12.9 0.00 0.08 0.03 92 1015.6
20260831050004 28 174 8.0 16.1 0.00 0.08 0.03 93 1015.6
20260831044508 28 35 8.0 14.5 0.00 0.08 0.03 96 1015.7
20260831043005 28 172 11.3 20.9 0.00 0.05 0.00 97 1015.7
20260831041509 28 76 9.7 19.3 0.00 0.05 0.00 100 1015.7